#timestamp,LO_Frequency,Hit,StdDev 
1569697215.3,286046999.4,N
1569697235.1,286046996.7,N
1569697255.9,286046999.0,N
1569697275.7,286046997.4,N
1569697295.5,286046998.9,N
1569697315.4,286046999.4,N
1569697335.2,286046997.5,N
1569697355.0,286047001.1,N
1569697355.9,286047001.1,N
1569697375.8,286046998.2,N
1569697395.6,286046998.8,N
1569697415.5,286046999.3,N
1569697435.3,286046998.3,N
1569697455.1,286046999.1,N
1569697475.9,286046996.6,N
1569697495.7,286046998.3,N
1569697515.5,286046999.1,N
1569697535.4,286046995.4,N
1569697555.2,286046995.7,N
1569697575.1,286046996.7,N
1569697576.0,286046996.7,N
1569697595.8,286046994.9,Y
1569697615.6,286047001.2,P
1569697635.5,286047002.6,N
1569697655.3,286046999.2,N
1569697675.1,286047000.7,N
1569697695.9,286046996.6,N
1569697715.7,286046998.6,N
1569697735.6,286047002.8,N
1569697755.4,286047002.4,N
1569697775.2,286047000.5,N
1569697795.1,286047000.6,N
1569697796.0,286047000.6,N
1569697815.8,286047000.5,N
1569697835.7,286046999.9,N
1569697855.5,286047000.0,N
1569697875.3,286046999.7,N
1569697895.2,286047001.5,N
1569697915.9,286047000.9,N
1569697935.7,286046998.9,N
1569697955.6,286047002.8,N
1569697975.4,286047000.1,N
1569697995.2,286047002.4,N
1569698015.1,286047001.9,N
1569698016.0,286047001.9,N
1569698035.8,286047004.0,N
1569698055.7,286047005.6,Y
1569698075.5,286047005.7,P
1569698095.3,286047003.7,N
1569698115.2,286047005.4,N
1569698135.0,286047005.6,N
1569698135.9,286047005.6,N
1569698155.8,286047003.5,N
1569698175.6,286047003.8,N
1569698195.4,286047011.9,Y
1569698215.3,286046998.2,P
1569698235.1,286047001.2,N
1569698255.8,286047000.5,N
1569698275.7,286047000.2,N
1569698295.5,286046998.3,N
1569698315.4,286047001.1,N
1569698335.2,286046998.3,N
1569698355.0,286046998.1,N
1569698355.9,286046998.1,N
1569698375.8,286046998.8,N
1569698395.6,286046999.3,N
1569698415.4,286046995.2,N
1569698435.3,286046995.3,N
1569698455.1,286046996.8,N
1569698475.8,286046995.1,N
1569698495.7,286046997.2,N
1569698515.5,286046997.2,N
1569698535.4,286046996.9,N
1569698555.2,286046997.4,N
1569698575.0,286047000.5,N
1569698575.9,286047000.5,N
1569698595.8,286046997.9,N
1569698615.6,286046997.9,N
1569698635.4,286046998.1,N
1569698655.3,286047000.6,N
1569698675.1,286047003.6,N
1569698695.9,286047003.4,N
1569698715.7,286047003.8,N
1569698735.5,286046999.7,N
1569698755.4,286047004.3,N
1569698775.2,286047003.8,N
1569698795.0,286047001.8,N
1569698796.0,286047001.8,N
1569698815.8,286047003.8,N
1569698835.6,286047003.7,N
1569698855.5,286047001.5,N
1569698875.3,286047001.5,N
1569698895.1,286047002.2,N
1569698915.9,286047002.5,N
1569698935.7,286047003.1,N
1569698955.6,286046999.8,N
1569698975.4,286047004.2,N
1569698995.2,286047002.2,N
1569699015.1,286047000.2,N
1569699016.0,286047000.2,N
1569699035.8,286047001.5,N
1569699055.6,286047001.3,N
1569699075.5,286047002.2,N
1569699095.3,286047000.1,N
1569699115.2,286047001.6,N
1569699135.9,286047002.4,N
1569699155.7,286047001.6,N
1569699175.6,286047005.9,Y
1569699195.4,286047002.0,P
1569699215.2,286047003.4,P
1569699235.1,286047003.9,P
1569699236.0,286047003.9,Y
1569699255.8,286047002.7,P
1569699275.7,286047001.0,P
1569699325.5,286047000.1,E
1569699335.5,286047003.1,N
1569699355.3,286047004.5,P
1569699375.1,286047001.7,N
1569699395.9,286047001.3,N
1569699415.7,286047005.5,Y
1569699435.5,286046999.9,P
1569699455.4,286046999.8,N
1569699475.2,286047000.8,N
1569699495.1,286047000.6,N
1569699496.0,286047000.6,N
1569699515.8,286047002.6,N
1569699535.6,286047000.2,N
1569699555.5,286047001.6,N
1569699575.3,286047001.3,N
1569699595.1,286047003.6,Y
1569699615.9,286046999.9,P
1569699635.7,286047002.8,P
1569699655.6,286047000.4,N
1569699675.4,286046998.0,N
1569699695.2,286046999.6,N
1569699715.1,286047000.7,N
1569699716.0,286047000.7,N
1569699735.8,286046999.4,N
1569699755.6,286046997.1,N
1569699775.5,286046998.4,N
1569699795.3,286046997.2,N
1569699815.2,286046997.4,N
1569699835.9,286046997.9,N
1569699855.7,286047001.1,N
1569699875.6,286047000.8,N
1569699895.4,286046999.7,N
1569699915.2,286047001.2,N
1569699935.1,286047000.3,N
1569699936.0,286047000.3,N
1569699955.8,286047003.4,N
1569699975.7,286047003.6,N
1569699995.5,286047003.4,N
1569700015.3,286047003.4,N
1569700035.2,286047005.5,N
1569700055.0,286047005.9,N
1569700055.9,286047005.9,N
1569700075.8,286047007.1,N
1569700095.6,286047003.6,N
1569700115.4,286047003.4,N
1569700135.3,286047002.9,N
1569700155.1,286047005.6,N
1569700175.9,286047006.3,N
1569700195.7,286047004.0,N
1569700215.5,286047003.1,N
1569700235.4,286047002.5,N
1569700255.2,286047001.9,N
1569700275.0,286047003.1,N
1569700275.9,286047003.1,N
1569700295.8,286047003.1,N
1569700315.6,286047007.6,N
1569700335.5,286047005.4,N
1569700355.3,286047004.2,N
1569700375.1,286047002.9,N
1569700395.9,286047005.6,N
1569700415.7,286047007.5,Y
1569700435.6,286047002.7,P
1569700455.4,286047000.2,N
1569700475.2,286046999.9,N
1569700495.1,286047000.4,N
1569700496.0,286047000.4,N
1569700515.8,286047002.5,N
1569700535.6,286047001.7,N
1569700555.5,286047003.7,N
1569700575.3,286047003.3,N
1569700595.2,286047003.3,N
1569700615.9,286047007.5,Y
1569700635.7,286047004.5,P
1569700655.6,286047006.4,P
1569700675.4,286047007.6,P
1569700695.3,286047003.4,N
1569700715.1,286047005.4,N
1569700716.0,286047005.4,N
1569700735.8,286047003.0,N
1569700755.7,286047005.3,Y
1569700775.5,286046999.4,P
1569700795.4,286047001.2,N
